Weather History for Gustavus, AK

Change the Weather History Date:

Thursday, April 4, 2013

  Actual Average Record
Temperature  
Mean Temperature 32 °F -  
Max Temperature 42 °F 46 °F 56 °F (1958)
Min Temperature 23 °F 30 °F 2 °F (1985)
Degree Days  
Heating Degree Days 32    
Moisture  
Dew Point 15 °F    
Average Humidity 52    
Maximum Humidity 100    
Minimum Humidity 24    
Precipitation  
Precipitation 0.00 in - - ()
Sea Level Pressure  
Sea Level Pressure 29.94 in    
Wind  
Wind Speed 5 mph (NNW)    
Max Wind Speed 17 mph    
Max Gust Speed 25 mph    
Visibility 10 miles    
Events      
Averages and records for this station are not official NWS values.
T = Trace of Precipitation, MM = Missing Value Source: NWS Daily Summary

Daily Weather History Graph

Daily Weather History Graph

Search for Another Location

Airport:

Trip Planner

Search our weather history database for the weather conditions in past years. The results will help you decide how hot, cold, wet, or windy it might be!

Date:

Astronomy

Apr. 04, 2013 Rise Set
Actual Time 6:20 AM AKDT 7:52 PM AKDT
Civil Twilight 5:39 AM AKDT 8:33 PM AKDT
Nautical Twilight 4:47 AM AKDT 9:25 PM AKDT
Astronomical Twilight 3:47 AM AKDT 10:26 PM AKDT
Moon 4:05 AM AKDT (4/4) 1:09 PM AKDT (4/4)
Length of Visible Light 14h 54m
Length of Day
13h 31m
Waning Crescent, 32% of the Moon is Illuminated
Apr 4
Waning Crescent
Apr 10
New
Apr 18
First Quarter
Apr 25
Full
May 2
Last Quarter

Hourly Weather History & Observations

Time (AKDT) Temp. Windchill Dew Point Humidity Pressure Visibility Wind Dir Wind Speed Gust Speed Precip Events Conditions
12:16 AM 28.4 °F - 26.6 °F 93% 30.12 in 10.0 mi Calm Calm - N/A   Clear
12:36 AM 26.6 °F - 26.6 °F 100% 30.12 in 10.0 mi Calm Calm - N/A   Clear
12:56 AM 26.6 °F - 26.6 °F 100% 30.12 in 10.0 mi Calm Calm - N/A   Clear
1:16 AM 28.4 °F - 28.4 °F 100% 30.12 in 10.0 mi Calm Calm - N/A   Clear
1:36 AM 26.6 °F 21.2 °F 24.8 °F 93% 30.11 in 10.0 mi NNW 4.6 mph - N/A   Clear
1:56 AM 26.6 °F - 26.6 °F 100% 30.11 in 10.0 mi Calm Calm - N/A   Clear
2:16 AM 26.6 °F 19.1 °F 24.8 °F 93% 30.10 in 10.0 mi NNW 6.9 mph - N/A   Clear
2:36 AM 30.2 °F 25.4 °F 26.6 °F 86% 30.10 in 10.0 mi NNW 4.6 mph - N/A   Clear
2:56 AM 26.6 °F - 24.8 °F 93% 30.09 in 10.0 mi Calm Calm - N/A   Clear
3:16 AM 26.6 °F - 24.8 °F 93% 30.08 in 10.0 mi Calm Calm - N/A   Clear
3:36 AM 24.8 °F - 24.8 °F 100% 30.08 in 10.0 mi Calm Calm - N/A   Clear
3:56 AM 24.8 °F - 23.0 °F 93% 30.07 in 10.0 mi Calm Calm - N/A   Clear
4:16 AM 23.0 °F - 21.2 °F 93% 30.07 in 10.0 mi Calm Calm - N/A   Clear
4:36 AM 24.8 °F - 23.0 °F 93% 30.06 in 10.0 mi Calm Calm - N/A   Clear
4:56 AM 23.0 °F - 21.2 °F 93% 30.05 in 10.0 mi Calm Calm - N/A   Clear
5:16 AM 23.0 °F - 21.2 °F 93% 30.05 in 10.0 mi Calm Calm - N/A   Clear
5:36 AM 23.0 °F - 23.0 °F 100% 30.04 in 10.0 mi Calm Calm - N/A   Clear
5:56 AM 23.0 °F - 21.2 °F 93% 30.04 in 10.0 mi Calm Calm - N/A   Clear
6:16 AM 23.0 °F 18.4 °F 23.0 °F 100% 30.03 in 10.0 mi North 3.5 mph - N/A   Clear
6:36 AM 23.0 °F - 23.0 °F 100% 30.03 in 10.0 mi Calm Calm - N/A   Clear
6:56 AM 26.6 °F 21.2 °F 24.8 °F 93% 30.02 in 10.0 mi North 4.6 mph - N/A   Clear
7:16 AM 24.8 °F - 23.0 °F 93% 30.02 in 10.0 mi Calm Calm - N/A   Clear
7:36 AM 28.4 °F 20.4 °F 23.0 °F 80% 30.02 in 10.0 mi East 8.1 mph - N/A   Clear
7:56 AM 30.2 °F 24.3 °F 24.8 °F 80% 30.01 in 10.0 mi NW 5.8 mph - N/A   Clear
8:36 AM 35.6 °F 29.9 °F 23.0 °F 60% 30.00 in 10.0 mi NW 6.9 mph - N/A   Clear
8:56 AM 39.2 °F 35.0 °F 21.2 °F 49% 29.99 in 10.0 mi NW 5.8 mph - N/A   Clear
9:16 AM 39.2 °F 32.5 °F 21.2 °F 49% 29.99 in 10.0 mi NNW 10.4 mph - N/A   Clear
9:36 AM 41.0 °F 36.4 °F 19.4 °F 42% 29.98 in 10.0 mi NNW 6.9 mph - N/A   Clear
9:56 AM 42.8 °F 37.5 °F 15.8 °F 34% 29.98 in 10.0 mi NNW 9.2 mph 16.1 mph N/A   Clear
10:16 AM 42.8 °F 37.0 °F 15.8 °F 34% 29.97 in 10.0 mi North 10.4 mph 17.3 mph N/A   Clear
10:36 AM 42.8 °F 36.2 °F 15.8 °F 34% 29.97 in 10.0 mi North 12.7 mph 16.1 mph N/A   Clear
10:56 AM 42.8 °F 36.6 °F 14.0 °F 31% 29.97 in 10.0 mi North 11.5 mph 20.7 mph N/A   Clear
11:16 AM 42.8 °F 35.8 °F 12.2 °F 29% 29.96 in 10.0 mi North 13.8 mph 19.6 mph N/A   Clear
11:36 AM 42.8 °F 36.6 °F 12.2 °F 29% 29.95 in 10.0 mi North 11.5 mph 16.1 mph N/A   Clear
11:56 AM 42.8 °F 37.0 °F 12.2 °F 29% 29.95 in 10.0 mi NNE 10.4 mph 17.3 mph N/A   Clear
12:16 PM 42.8 °F 36.2 °F 12.2 °F 29% 29.95 in 10.0 mi North 12.7 mph 18.4 mph N/A   Clear
12:36 PM 42.8 °F 36.6 °F 10.4 °F 27% 29.95 in 10.0 mi North 11.5 mph - N/A   Clear
12:56 PM 42.8 °F 34.8 °F 10.4 °F 27% 29.94 in 10.0 mi North 17.3 mph - N/A   Clear
1:16 PM 42.8 °F 35.8 °F 8.6 °F 25% 29.94 in 10.0 mi North 13.8 mph 19.6 mph N/A   Clear
1:36 PM 42.8 °F 35.8 °F 10.4 °F 27% 29.93 in 10.0 mi North 13.8 mph 21.9 mph N/A   Clear
1:56 PM 42.8 °F 36.6 °F 10.4 °F 27% 29.92 in 10.0 mi NNW 11.5 mph 18.4 mph N/A   Clear
2:16 PM 42.8 °F 36.6 °F 8.6 °F 25% 29.92 in 10.0 mi North 11.5 mph 18.4 mph N/A   Clear
2:36 PM 41.0 °F 33.1 °F 8.6 °F 26% 29.91 in 10.0 mi North 15.0 mph 21.9 mph N/A   Clear
2:56 PM 41.0 °F 33.9 °F 8.6 °F 26% 29.90 in 10.0 mi North 12.7 mph 25.3 mph N/A   Clear
3:16 PM 41.0 °F 33.5 °F 8.6 °F 26% 29.89 in 10.0 mi North 13.8 mph 19.6 mph N/A   Clear
3:36 PM 41.0 °F 33.9 °F 8.6 °F 26% 29.89 in 10.0 mi North 12.7 mph 23.0 mph N/A   Clear
3:56 PM 41.0 °F 33.9 °F 8.6 °F 26% 29.88 in 10.0 mi NNE 12.7 mph 16.1 mph N/A   Clear
4:16 PM 41.0 °F 34.3 °F 8.6 °F 26% 29.87 in 10.0 mi North 11.5 mph 18.4 mph N/A   Clear
4:36 PM 41.0 °F 33.9 °F 6.8 °F 24% 29.87 in 10.0 mi North 12.7 mph 17.3 mph N/A   Clear
4:56 PM 39.2 °F 31.6 °F 6.8 °F 26% 29.86 in 10.0 mi North 12.7 mph 18.4 mph N/A   Clear
5:16 PM 39.2 °F 32.0 °F 6.8 °F 26% 29.85 in 10.0 mi North 11.5 mph 17.3 mph N/A   Clear
5:36 PM 39.2 °F 31.6 °F 6.8 °F 26% 29.84 in 10.0 mi NNE 12.7 mph 16.1 mph N/A   Clear
5:56 PM 39.2 °F 33.0 °F 6.8 °F 26% 29.84 in 10.0 mi North 9.2 mph - N/A   Clear
6:16 PM 39.2 °F 33.6 °F 6.8 °F 26% 29.83 in 10.0 mi North 8.1 mph - N/A   Clear
6:36 PM 37.4 °F 32.1 °F 5.0 °F 26% 29.82 in 10.0 mi North 6.9 mph - N/A   Clear
6:56 PM 37.4 °F 30.8 °F 5.0 °F 26% 29.82 in 10.0 mi North 9.2 mph 16.1 mph N/A   Clear
7:16 PM 35.6 °F 29.2 °F 5.0 °F 28% 29.80 in 10.0 mi NNW 8.1 mph - N/A   Clear
7:36 PM 35.6 °F 29.2 °F 5.0 °F 28% 29.80 in 10.0 mi NNW 8.1 mph - N/A   Clear
7:56 PM 35.6 °F 28.6 °F 6.8 °F 30% 29.79 in 10.0 mi NW 9.2 mph 18.4 mph N/A   Clear
8:16 PM 33.8 °F 25.3 °F 6.8 °F 32% 29.78 in 10.0 mi NNW 11.5 mph 16.1 mph N/A   Clear
8:36 PM 33.8 °F 25.3 °F 6.8 °F 32% 29.78 in 10.0 mi NW 11.5 mph - N/A   Clear
8:56 PM 33.8 °F 25.8 °F 6.8 °F 32% 29.77 in 10.0 mi NW 10.4 mph - N/A   Clear
9:16 PM 33.8 °F 24.8 °F 6.8 °F 32% 29.77 in 10.0 mi NW 12.7 mph - N/A   Clear
9:36 PM 33.8 °F 27.0 °F 6.8 °F 32% 29.76 in 10.0 mi NNW 8.1 mph - N/A   Clear
9:56 PM 33.8 °F 25.8 °F 6.8 °F 32% 29.76 in 10.0 mi NNW 10.4 mph - N/A   Clear
10:16 PM 33.8 °F 25.8 °F 6.8 °F 32% 29.75 in 10.0 mi NW 10.4 mph - N/A   Clear
10:36 PM 33.8 °F 25.8 °F 6.8 °F 32% 29.75 in 10.0 mi NNW 10.4 mph - N/A   Clear
10:56 PM 33.8 °F 25.8 °F 6.8 °F 32% 29.74 in 10.0 mi NW 10.4 mph - N/A   Clear
11:16 PM 33.8 °F 25.3 °F 6.8 °F 32% 29.74 in 10.0 mi NNW 11.5 mph - N/A   Clear
11:36 PM 33.8 °F 27.7 °F 6.8 °F 32% 29.74 in 10.0 mi NW 6.9 mph - N/A   Clear
11:56 PM 32.0 °F - 6.8 °F 35% 29.74 in 10.0 mi Calm Calm - N/A   Clear